Temp
91 94 94 93 95 76 85 86 78 83 92 88 77 74 76 75 72 68 78 75 81 89 89 91 90 88 88 87 87 88 87 88 88 87 89 90 89 90 89 88 88 87 87 87 87 87 88 88 87 87 85 85 85 85 85 84 84 84 83 83 83 83 83
88 92 95 93 92 93 89 79 85 89 93 90 78 70 69 69 65 69 75 71 75 75 72 85 86 86 88 88 86 88 87 87 86 86 87 88 89 89 88 88 88 87 87 86 88 89 89 88 88 86 85 86 86 86 86 84 84 82 83 83 83 83 82
87 91 92 88 91 93 89 88 97 82 72 70 77 73 63 64 64 68 72 75 76 78 76 82 82 84 86 87 86 86 86 87 86 87 87 88 89 89 88 88 87 86 87 86 87 89 91 89 87 87 86 87 87 87 86 86 84 84 84 84 84 83 83
86 89 89 77 84 89 91 92 89 93 86 80 71 74 75 73 66 65 69 72 70 79 83 84 84 85 86 87 85 85 87 88 87 87 87 87 87 87 88 88 87 87 88 89 90 90 90 88 87 88 89 90 90 88 85 85 85 84 84 83 83 82 83
87 79 85 83 86 81 83 84 83 85 85 87 85 82 77 73 67 67 67 66 75 83 89 87 86 87 88 88 87 86 87 89 89 88 87 86 87 87 88 88 88 87 89 90 90 90 90 89 89 90 91 90 91 90 86 86 83 83 83 83 83 82 83
79 84 92 89 88 91 87 85 83 85 80 75 70 69 81 78 71 61 64 64 76 84 89 87 89 90 90 90 89 88 89 89 88 88 88 87 87 88 89 90 90 90 88 89 90 90 89 89 90 91 91 90 91 89 90 89 89 87 86 84 83 82 82
83 86 86 88 88 88 90 91 88 91 88 84 76 64 70 77 77 78 75 68 73 87 89 89 89 90 90 89 89 89 90 89 89 89 90 88 88 88 90 91 91 91 89 89 88 87 86 86 86 88 88 90 89 88 88 88 87 87 89 87 84 83 82
84 86 89 87 87 89 86 89 90 90 85 87 83 80 79 74 74 70 72 65 75 83 82 86 86 83 86 86 86 86 90 91 90 88 88 86 86 87 90 90 91 89 89 87 85 84 84 84 85 86 87 87 88 88 89 90 88 87 87 87 86 83 82
74 79 82 84 86 87 85 85 88 89 90 89 86 83 81 72 75 75 71 63 75 79 81 82 83 87 89 90 90 87 86 89 90 88 87 87 85 86 87 87 87 87 87 84 82 82 82 83 84 84 85 85 86 86 88 90 90 89 87 86 85 84 83
60 59 61 67 73 78 85 88 88 87 86 83 80 74 74 66 71 71 69 71 79 81 83 84 85 87 86 89 91 92 89 86 87 88 87 85 85 84 85 85 85 84 84 83 82 82 82 83 84 83 83 84 85 85 86 89 89 87 87 87 86 84 85
72 75 77 85 87 85 79 83 83 84 87 88 84 81 74 70 66 67 66 74 78 80 83 83 85 86 87 88 90 88 88 87 86 85 85 85 84 83 84 83 84 83 82 81 82 82 83 84 84 84 84 84 85 84 85 87 87 87 85 84 83 83 83
81 84 80 86 87 84 84 83 83 85 84 85 82 77 73 75 72 66 69 69 74 78 82 85 84 86 87 88 88 89 88 87 86 85 84 82 84 84 83 83 82 81 81 81 82 82 83 84 84 85 85 85 84 84 85 86 87 87 86 83 82 82 81
83 83 84 85 86 86 86 86 85 82 83 82 79 77 80 77 74 71 66 71 73 78 84 86 86 86 86 88 89 89 90 89 87 84 83 83 83 83 82 81 81 81 81 81 81 82 83 83 83 84 85 85 84 84 86 85 87 86 85 83 81 81 81
81 79 81 83 84 84 84 85 85 85 84 82 83 82 83 80 76 78 77 72 74 81 84 86 87 88 88 88 88 87 86 87 85 84 83 83 83 82 82 81 82 81 82 81 82 82 82 83 82 83 83 83 84 84 85 86 84 85 84 82 80 80 81
76 79 80 82 83 82 80 84 85 85 85 84 84 84 81 79 77 79 78 74 74 84 87 85 87 88 88 87 87 89 87 86 85 84 84 83 83 83 82 82 82 82 82 82 82 82 82 83 83 82 83 84 84 87 87 87 84 85 84 81 80 80 80
73 77 79 79 82 83 81 79 81 82 82 78 80 78 80 76 74 75 75 73 75 85 89 88 87 86 85 84 85 85 85 85 84 83 83 83 82 83 82 82 82 82 82 82 82 82 82 82 83 83 83 84 84 85 86 86 87 86 83 82 81 80 81
73 77 80 79 79 78 74 74 79 82 82 84 84 84 82 81 81 76 72 75 84 85 85 83 84 86 86 86 85 84 84 82 83 82 82 83 83 83 82 81 81 82 84 84 83 83 83 83 83 85 85 85 84 84 84 85 85 84 83 83 81 81 81
72 75 78 79 74 64 67 81 88 85 83 82 79 79 79 81 81 81 84 83 85 85 85 83 82 83 84 84 85 84 82 82 81 81 82 83 84 84 84 83 83 83 84 85 85 85 84 85 88 87 87 85 85 86 86 85 83 82 82 82 82 81 81
71 74 74 68 60 65 76 81 85 87 88 87 83 83 83 84 83 83 83 84 83 84 85 85 85 85 84 84 83 83 84 81 82 81 82 82 82 82 83 82 84 83 84 84 84 84 85 88 88 87 85 86 86 86 85 84 84 82 82 82 81 81 81
76 70 69 57 63 73 77 80 82 83 85 84 82 79 83 84 85 83 82 83 85 85 86 87 87 83 83 84 83 82 83 84 83 83 83 84 84 83 84 83 83 83 84 83 84 84 87 87 88 88 86 88 87 86 86 85 83 83 82 81 81 81 81
67 70 70 69 72 71 74 74 77 81 78 79 77 71 77 84 85 85 83 84 85 86 87 87 84 83 84 82 86 87 86 84 85 85 86 88 86 85 85 86 85 84 85 85 86 85 86 86 86 86 88 88 87 86 86 85 83 83 83 81 81 81 81
75 70 67 68 67 61 70 78 85 89 89 88 86 79 76 85 88 89 86 83 84 85 87 84 82 80 80 80 84 86 89 87 84 85 87 88 87 86 87 85 86 84 85 86 86 87 86 85 86 87 88 88 86 84 84 84 85 84 83 82 82 82 82
71 68 62 64 61 67 78 80 83 86 88 88 85 77 71 84 87 89 87 85 85 85 85 82 80 80 78 79 84 85 86 87 88 87 86 89 89 87 87 86 85 84 84 85 86 86 85 84 86 87 87 87 85 83 83 84 85 83 82 82 82 82 83
71 69 66 64 70 70 77 82 84 87 88 86 80 64 67 83 87 89 88 86 86 86 86 84 81 80 78 82 83 89 87 88 87 85 83 84 85 85 86 87 86 84 84 84 84 84 84 84 86 86 87 86 84 83 84 85 84 83 82 83 84 84 84
69 63 68 72 73 77 81 81 84 86 88 83 67 59 75 85 87 88 87 87 88 87 84 83 81 84 86 83 85 88 89 87 85 85 86 85 86 85 87 86 84 85 84 83 83 84 85 85 87 87 86 85 83 83 82 82 81 83 84 84 84 84 84
70 71 67 68 74 76 81 83 86 87 80 65 66 78 83 86 86 87 88 88 88 88 85 85 86 89 87 85 87 87 88 86 83 85 85 86 86 88 87 84 83 85 85 83 84 87 86 87 87 87 85 82 82 82 81 81 82 85 85 84 84 83 82
73 71 67 63 55 71 82 82 81 81 72 75 78 79 84 87 85 85 86 87 87 88 85 87 86 87 89 88 87 87 86 84 83 84 84 83 84 85 83 83 84 85 84 83 85 86 89 90 86 85 84 81 81 81 80 81 84 85 85 84 82 82 81
66 65 61 60 72 76 83 81 75 77 81 80 80 79 80 85 85 85 84 85 86 85 84 85 85 85 83 82 83 84 85 85 85 84 84 84 85 85 89 89 86 86 83 84 85 86 90 88 86 84 82 80 80 80 80 83 84 83 82 82 82 81 80
71 68 73 73 76 79 83 81 79 81 84 84 84 82 82 81 84 86 84 83 85 84 83 83 83 83 83 83 84 84 84 85 85 83 83 84 84 85 86 89 87 86 86 84 84 85 84 82 82 82 82 80 79 78 81 83 82 82 81 80 80 79 80
75 78 78 80 80 80 82 86 85 84 85 87 85 83 81 83 84 86 84 85 85 83 82 82 82 84 84 83 83 84 84 84 83 83 83 83 84 85 85 83 82 84 85 84 83 82 82 82 81 80 81 81 78 79 82 82 82 81 81 79 79 78 80
68 62 75 76 76 79 81 82 84 86 87 85 84 81 80 81 83 84 85 83 83 83 82 82 82 84 84 83 82 82 82 82 81 82 82 82 83 83 83 82 81 82 83 84 83 83 83 83 83 84 82 82 81 81 82 81 81 81 80 79 78 78 78
70 70 73 76 80 79 80 82 81 80 81 82 83 82 82 81 81 81 82 82 81 83 82 82 83 83 85 84 81 82 82 82 82 82 82 81 81 81 82 80 81 82 81 81 82 81 80 81 81 81 83 83 83 83 84 85 85 80 78 78 77 78 78
74 74 75 76 78 80 81 82 81 80 80 80 80 81 81 83 83 82 82 83 84 83 84 84 84 83 83 84 84 86 84 83 83 82 82 81 80 79 79 78 79 79 79 79 78 78 78 78 79 79 79 83 86 82 84 84 81 80 79 78 77 77 77
69 70 70 72 70 72 78 79 79 78 80 80 79 80 81 82 81 81 81 82 84 86 86 84 85 83 82 84 85 88 85 83 82 81 80 80 80 79 79 79 78 77 76 76 76 76 76 77 77 78 78 79 81 85 84 83 81 79 77 77 77 78 79
69 71 74 72 71 71 74 76 77 78 80 79 78 77 78 80 82 83 82 82 82 83 84 86 86 82 80 82 85 86 86 81 81 81 81 80 80 79 80 79 77 77 76 76 76 75 76 76 77 77 77 79 79 82 81 81 81 79 78 77 78 80 79
74 76 74 74 71 69 72 76 77 78 79 78 79 80 80 80 81 82 82 83 82 81 83 83 86 84 83 83 85 85 82 82 80 79 80 80 79 79 80 79 77 76 76 76 75 75 76 77 77 77 79 79 78 82 80 80 80 78 78 77 76 79 79
72 75 75 74 73 74 76 77 78 80 79 79 77 78 80 79 80 82 81 81 84 84 82 82 84 86 85 85 85 81 80 79 79 77 76 76 77 79 80 79 77 76 76 76 76 76 76 76 76 77 77 78 78 81 79 80 79 78 77 77 78 78 77
MSLP
1008.33 1007.65 1007.60 1008.24 1007.41 1014.33 1010.92 1011.48 1013.97 1011.89 1009.16 1010.53 1014.21 1015.24 1014.77 1015.24 1016.41 1016.92 1013.65 1014.80 1012.68 1010.16 1009.89 1009.45 1009.84 1010.48 1010.53 1010.72 1010.89 1010.80 1010.84 1010.77 1010.84 1011.09 1010.92 1011.01 1011.21 1011.45 1011.97 1012.41 1012.65 1013.01 1013.24 1013.57 1013.65 1013.97 1014.21 1014.45 1014.80 1015.01 1015.28 1015.36 1015.65 1015.89 1016.04 1016.28 1016.33 1016.36 1016.48 1016.57 1016.60 1016.65 1016.68
1008.89 1007.53 1007.04 1008.09 1008.24 1008.12 1010.16 1013.65 1011.01 1009.68 1008.84 1009.92 1013.72 1016.77 1016.92 1017.28 1018.57 1016.12 1014.80 1016.04 1014.48 1014.45 1015.53 1010.80 1010.97 1011.04 1010.48 1010.57 1010.97 1010.60 1010.57 1010.68 1011.28 1011.12 1010.89 1010.77 1010.97 1011.04 1011.53 1011.89 1012.12 1012.48 1012.89 1013.28 1013.41 1013.53 1013.68 1014.09 1014.36 1014.72 1015.04 1015.04 1015.24 1015.45 1015.68 1016.04 1016.21 1016.48 1016.41 1016.41 1016.48 1016.53 1016.68
1009.16 1007.92 1008.24 1009.60 1008.57 1007.97 1009.72 1010.12 1006.89 1012.21 1015.89 1016.65 1013.77 1015.45 1018.97 1018.60 1018.28 1016.53 1015.09 1014.53 1014.12 1013.24 1013.45 1011.97 1012.04 1011.48 1010.77 1010.33 1010.68 1010.77 1010.92 1010.77 1010.77 1010.80 1010.84 1010.68 1010.68 1010.97 1011.53 1011.89 1012.21 1012.53 1012.77 1013.04 1013.21 1013.28 1013.33 1013.65 1014.04 1014.36 1014.65 1014.80 1015.01 1015.21 1015.36 1015.53 1015.97 1016.01 1016.12 1016.09 1016.21 1016.28 1016.41
1009.24 1008.89 1009.24 1012.89 1011.12 1009.28 1008.68 1008.53 1009.65 1008.36 1010.57 1012.09 1015.68 1014.57 1013.77 1014.97 1017.28 1017.57 1015.68 1015.53 1015.45 1012.04 1011.04 1010.68 1011.01 1010.65 1010.28 1010.12 1010.77 1010.92 1010.24 1010.09 1010.24 1010.36 1010.48 1010.77 1010.80 1010.77 1011.12 1011.53 1011.89 1012.12 1012.33 1012.53 1012.77 1013.04 1013.24 1013.60 1014.04 1014.21 1014.36 1014.45 1014.72 1014.97 1015.28 1015.48 1015.57 1015.72 1015.92 1016.09 1016.16 1016.33 1016.21
1009.41 1012.04 1009.97 1010.57 1009.72 1011.68 1011.57 1011.45 1011.24 1011.04 1011.01 1010.16 1010.77 1011.77 1013.60 1015.04 1016.45 1016.41 1016.45 1016.84 1013.24 1010.09 1009.01 1010.04 1010.16 1009.92 1009.65 1009.60 1010.16 1010.16 1009.89 1009.53 1009.53 1009.77 1010.04 1010.33 1010.41 1010.41 1010.65 1010.97 1011.41 1011.77 1011.92 1012.12 1012.45 1012.60 1012.84 1013.16 1013.60 1013.77 1013.89 1014.16 1014.21 1014.48 1015.12 1015.24 1015.68 1015.80 1015.89 1015.89 1015.97 1016.09 1016.04
1011.80 1009.68 1007.36 1008.01 1008.21 1007.77 1009.36 1010.33 1010.97 1010.33 1012.36 1014.28 1015.92 1015.89 1012.28 1013.12 1015.36 1016.84 1017.36 1017.65 1012.60 1010.12 1008.41 1009.33 1009.21 1008.92 1009.04 1008.97 1009.24 1009.36 1009.21 1009.16 1009.16 1009.41 1009.57 1009.72 1010.16 1010.01 1010.12 1010.41 1010.72 1011.16 1011.60 1011.89 1012.16 1012.45 1012.60 1013.16 1013.45 1013.60 1013.53 1013.80 1014.04 1014.45 1014.60 1014.84 1014.92 1015.24 1015.41 1015.68 1015.84 1015.92 1015.97
1009.72 1008.60 1008.65 1007.80 1007.97 1008.04 1007.72 1007.80 1008.97 1007.97 1009.09 1010.41 1013.21 1016.36 1014.97 1013.53 1013.04 1013.01 1014.09 1016.33 1013.77 1009.04 1008.57 1008.53 1008.72 1008.77 1008.80 1008.92 1008.92 1009.12 1008.80 1008.84 1008.97 1009.16 1009.16 1009.36 1009.48 1009.60 1009.60 1009.92 1010.24 1010.65 1011.16 1011.48 1011.97 1012.45 1012.77 1013.04 1013.28 1013.41 1013.57 1013.72 1013.97 1014.33 1014.45 1014.57 1014.80 1014.97 1014.84 1015.12 1015.41 1015.68 1015.80
1009.01 1008.57 1007.92 1008.21 1008.21 1008.12 1009.21 1008.41 1007.77 1007.89 1009.60 1009.36 1010.45 1011.12 1011.36 1013.80 1013.97 1015.80 1015.16 1016.89 1013.12 1009.80 1009.77 1009.16 1009.28 1009.80 1009.48 1009.33 1009.45 1009.60 1008.77 1008.48 1008.57 1008.92 1008.97 1009.33 1009.68 1009.53 1009.41 1009.53 1009.89 1010.36 1010.84 1011.33 1012.01 1012.65 1012.97 1013.16 1013.33 1013.48 1013.60 1013.68 1013.84 1014.04 1014.21 1014.28 1014.60 1014.72 1014.80 1014.92 1015.12 1015.41 1015.68
1011.68 1011.04 1010.04 1009.84 1008.92 1008.89 1009.57 1009.41 1008.36 1008.09 1007.92 1008.16 1009.16 1010.48 1010.89 1013.89 1013.12 1013.60 1014.92 1017.33 1013.01 1011.01 1010.01 1009.89 1009.72 1009.33 1009.09 1008.80 1008.60 1009.01 1009.53 1008.80 1008.57 1008.80 1008.97 1009.09 1009.41 1009.60 1009.72 1009.89 1010.09 1010.41 1010.84 1011.48 1012.01 1012.36 1012.77 1012.97 1013.16 1013.36 1013.57 1013.72 1013.84 1014.09 1014.04 1014.04 1014.09 1014.21 1014.57 1014.72 1015.01 1015.21 1015.41
1016.09 1016.48 1015.60 1014.09 1012.84 1011.24 1009.12 1008.21 1007.89 1008.45 1009.21 1010.04 1011.21 1013.41 1013.16 1015.45 1012.92 1013.16 1014.72 1014.33 1010.45 1010.45 1009.84 1009.84 1009.53 1009.28 1009.45 1008.65 1008.28 1007.97 1008.45 1009.04 1009.01 1008.84 1009.12 1009.24 1009.48 1009.72 1009.80 1010.01 1010.16 1010.48 1010.68 1011.09 1011.57 1012.04 1012.41 1012.65 1012.92 1013.21 1013.36 1013.48 1013.68 1013.89 1014.01 1013.77 1013.97 1014.16 1014.36 1014.53 1014.77 1015.04 1015.12
1011.16 1010.36 1009.09 1007.24 1007.01 1008.41 1010.60 1009.16 1009.28 1009.36 1008.65 1008.33 1009.45 1010.09 1012.72 1014.41 1014.01 1014.33 1013.01 1012.68 1011.57 1010.80 1009.97 1010.01 1009.65 1009.33 1009.33 1008.92 1008.28 1008.72 1008.80 1008.84 1009.01 1009.12 1009.16 1009.28 1009.45 1009.68 1009.89 1010.09 1010.16 1010.41 1010.80 1011.09 1011.21 1011.65 1011.97 1012.24 1012.53 1012.84 1013.09 1013.24 1013.45 1013.77 1013.89 1013.72 1013.77 1014.01 1014.28 1014.57 1014.84 1015.01 1015.09
1007.65 1007.01 1008.33 1007.12 1007.09 1008.28 1008.24 1008.89 1009.41 1008.65 1009.04 1009.01 1010.04 1011.68 1013.12 1011.01 1013.57 1014.80 1012.04 1012.24 1013.04 1011.57 1010.01 1009.45 1009.68 1009.21 1008.84 1008.57 1008.57 1008.28 1008.41 1008.57 1008.68 1008.77 1009.09 1009.24 1009.45 1009.48 1009.65 1010.01 1010.28 1010.53 1010.72 1010.89 1011.16 1011.45 1011.77 1012.01 1012.28 1012.48 1012.60 1012.80 1013.21 1013.53 1013.68 1013.60 1013.60 1013.80 1014.04 1014.45 1014.72 1014.92 1015.01
1007.84 1007.72 1007.45 1007.16 1007.33 1007.41 1007.41 1007.65 1008.12 1009.28 1009.04 1009.48 1010.57 1010.68 1010.12 1010.89 1012.53 1013.36 1013.41 1012.36 1012.97 1011.36 1009.60 1008.97 1009.01 1008.97 1008.89 1008.41 1008.16 1007.92 1007.68 1007.77 1008.16 1008.65 1009.04 1009.28 1009.36 1009.53 1009.77 1009.84 1009.97 1010.21 1010.53 1010.68 1010.97 1011.21 1011.48 1011.72 1012.16 1012.33 1012.48 1012.68 1012.92 1013.21 1013.16 1013.36 1013.41 1013.65 1013.89 1014.33 1014.65 1014.77 1014.84
1008.45 1008.68 1008.33 1007.84 1007.92 1007.89 1007.77 1007.57 1007.65 1008.01 1008.77 1009.33 1009.24 1009.41 1009.28 1010.45 1011.16 1010.68 1011.48 1012.65 1012.53 1010.41 1009.41 1008.89 1008.48 1008.09 1008.16 1008.09 1007.84 1007.92 1008.28 1008.24 1008.24 1008.53 1008.84 1008.97 1009.12 1009.24 1009.41 1009.57 1009.65 1009.80 1009.92 1010.24 1010.57 1010.89 1011.24 1011.60 1012.04 1012.16 1012.41 1012.68 1012.89 1013.09 1013.16 1013.21 1013.41 1013.45 1013.72 1014.24 1014.53 1014.60 1014.65
1009.45 1008.84 1008.57 1008.12 1007.80 1008.16 1008.80 1007.57 1007.48 1007.77 1008.09 1008.45 1008.53 1008.53 1009.72 1010.24 1010.84 1010.68 1011.09 1012.16 1012.16 1008.92 1007.89 1008.60 1007.89 1007.77 1007.84 1008.16 1008.28 1007.80 1007.68 1007.97 1008.16 1008.45 1008.53 1008.57 1008.60 1008.57 1008.84 1009.12 1009.28 1009.41 1009.60 1009.80 1010.16 1010.57 1010.92 1011.28 1011.65 1011.92 1012.16 1012.33 1012.53 1012.57 1012.68 1012.80 1013.16 1013.28 1013.57 1014.04 1014.24 1014.33 1014.45
1010.45 1009.21 1009.01 1008.84 1008.12 1007.97 1008.36 1009.09 1008.60 1008.60 1008.84 1010.01 1009.57 1010.41 1009.65 1010.89 1011.60 1011.45 1011.57 1012.45 1011.68 1008.53 1007.12 1007.72 1007.92 1008.09 1008.41 1008.48 1008.04 1007.89 1007.92 1007.84 1008.01 1008.28 1008.24 1008.33 1008.36 1008.36 1008.53 1008.68 1008.89 1009.21 1009.33 1009.57 1009.84 1010.16 1010.48 1010.84 1011.21 1011.53 1011.84 1012.04 1012.33 1012.48 1012.45 1012.60 1012.72 1012.89 1013.36 1013.68 1013.89 1014.01 1014.01
1009.92 1009.41 1008.57 1009.12 1009.01 1009.41 1010.77 1010.53 1008.92 1008.24 1008.12 1007.68 1007.97 1008.04 1008.60 1009.12 1009.21 1011.21 1012.28 1011.28 1008.48 1008.12 1008.09 1008.89 1008.48 1008.09 1007.84 1007.84 1007.92 1007.97 1007.80 1007.97 1008.04 1008.09 1008.12 1007.97 1008.01 1008.09 1008.24 1008.53 1008.68 1008.68 1008.77 1008.89 1009.24 1009.60 1010.04 1010.57 1010.97 1011.04 1011.24 1011.72 1012.09 1012.09 1012.33 1012.36 1012.53 1012.84 1013.16 1013.33 1013.57 1013.68 1013.68
1010.04 1009.68 1009.16 1008.68 1010.60 1013.57 1012.04 1007.28 1005.60 1006.60 1007.92 1008.12 1009.16 1009.57 1009.53 1008.84 1009.01 1009.41 1008.48 1008.48 1007.89 1008.12 1008.28 1008.77 1008.72 1008.33 1008.01 1007.89 1007.33 1007.24 1007.72 1007.84 1008.09 1007.97 1007.72 1007.65 1007.60 1007.72 1007.84 1008.01 1008.24 1008.36 1008.41 1008.53 1008.80 1009.12 1009.57 1009.97 1010.21 1010.41 1010.65 1011.21 1011.45 1011.53 1011.80 1012.09 1012.53 1012.77 1013.01 1013.12 1013.21 1013.36 1013.45
1010.36 1010.01 1010.09 1011.77 1014.21 1012.01 1008.53 1007.12 1006.33 1005.84 1005.92 1006.57 1007.80 1007.72 1008.01 1007.97 1008.09 1008.28 1008.48 1008.33 1008.41 1008.01 1007.77 1007.65 1007.48 1007.41 1007.33 1007.21 1007.48 1007.41 1007.21 1007.45 1007.48 1007.65 1007.53 1007.60 1007.57 1007.72 1007.80 1008.01 1007.97 1008.12 1008.21 1008.53 1008.80 1009.16 1009.45 1009.60 1009.89 1010.33 1010.77 1010.89 1011.09 1011.41 1011.60 1012.01 1012.24 1012.57 1012.77 1012.89 1013.04 1013.09 1013.21
1008.92 1010.72 1011.12 1014.84 1012.45 1009.53 1008.36 1007.92 1007.36 1006.84 1006.65 1007.01 1007.68 1008.68 1008.01 1007.68 1007.60 1007.89 1008.65 1008.12 1007.57 1007.36 1007.28 1006.84 1006.84 1007.65 1007.53 1007.12 1006.97 1007.09 1006.80 1006.65 1007.01 1007.12 1007.21 1007.12 1007.24 1007.57 1007.45 1007.72 1007.84 1008.04 1008.21 1008.45 1008.68 1009.04 1009.01 1009.41 1009.68 1009.92 1010.36 1010.41 1010.80 1011.16 1011.24 1011.72 1011.97 1012.21 1012.41 1012.65 1012.72 1012.77 1012.89
1011.16 1010.45 1010.28 1010.48 1009.41 1010.09 1009.36 1009.33 1008.72 1007.89 1008.60 1008.65 1009.09 1011.12 1009.28 1007.24 1007.04 1007.21 1007.84 1007.65 1007.24 1007.09 1006.77 1006.65 1007.21 1007.36 1007.36 1007.60 1006.41 1005.77 1006.12 1006.45 1006.33 1006.45 1006.45 1006.24 1006.60 1006.77 1006.97 1007.09 1007.48 1007.65 1007.77 1008.09 1008.24 1008.60 1009.01 1009.24 1009.60 1009.84 1009.80 1010.04 1010.53 1010.84 1011.16 1011.41 1011.65 1011.89 1012.04 1012.36 1012.45 1012.48 1012.57
1008.60 1010.04 1010.97 1010.80 1011.24 1013.16 1010.45 1007.80 1006.04 1005.28 1005.24 1005.57 1006.12 1008.21 1009.24 1006.60 1006.16 1005.97 1006.80 1007.57 1007.33 1007.09 1006.65 1007.09 1007.60 1007.80 1008.28 1008.41 1006.65 1006.09 1005.60 1005.92 1006.45 1006.16 1006.01 1005.89 1006.09 1006.36 1006.60 1006.80 1007.12 1007.53 1007.68 1007.84 1008.04 1008.45 1008.80 1009.09 1009.16 1009.28 1009.48 1009.77 1010.28 1010.77 1011.01 1011.12 1011.36 1011.60 1011.80 1011.97 1011.97 1012.04 1012.16
1009.84 1010.53 1011.92 1011.68 1012.24 1010.16 1007.01 1006.68 1006.53 1006.01 1005.57 1005.84 1006.45 1008.89 1010.68 1006.53 1005.77 1005.68 1006.24 1006.72 1006.60 1006.65 1006.72 1007.48 1007.77 1008.12 1008.92 1007.97 1006.65 1006.41 1005.80 1005.77 1005.72 1006.21 1006.16 1005.92 1005.92 1006.33 1006.48 1006.80 1007.28 1007.45 1007.68 1007.80 1008.01 1008.28 1008.65 1009.16 1009.01 1009.01 1009.21 1009.53 1010.04 1010.57 1010.72 1010.84 1010.92 1011.24 1011.41 1011.48 1011.53 1011.60 1011.65
1009.09 1009.97 1010.89 1011.24 1009.21 1009.45 1007.45 1006.48 1006.33 1005.84 1005.57 1005.84 1007.89 1012.80 1011.60 1006.68 1005.57 1005.24 1005.77 1006.36 1006.41 1006.24 1006.21 1006.84 1007.57 1007.92 1008.72 1007.21 1006.65 1005.45 1005.60 1005.48 1005.68 1006.09 1006.53 1006.45 1006.41 1006.60 1006.48 1006.57 1006.89 1007.24 1007.53 1007.97 1008.36 1008.60 1008.84 1008.84 1008.53 1008.68 1008.92 1009.28 1009.77 1010.09 1010.33 1010.45 1010.72 1010.89 1010.92 1010.92 1010.89 1010.89 1010.97
1009.16 1010.12 1009.65 1008.57 1008.21 1007.09 1006.60 1006.89 1006.04 1005.80 1005.33 1006.89 1011.53 1013.48 1009.21 1005.68 1005.53 1005.28 1005.57 1005.77 1005.60 1005.65 1006.53 1006.72 1007.53 1006.48 1005.80 1006.12 1005.77 1005.24 1005.21 1005.68 1006.04 1005.97 1006.01 1006.24 1006.33 1006.60 1006.65 1006.80 1006.84 1007.36 1007.68 1008.01 1008.24 1008.28 1008.28 1008.16 1008.21 1008.36 1008.68 1009.21 1009.68 1009.92 1010.16 1010.45 1010.57 1010.41 1010.33 1010.41 1010.45 1010.57 1010.72
1008.97 1008.48 1010.04 1009.48 1008.01 1007.36 1006.60 1006.21 1005.77 1005.53 1007.60 1011.89 1011.53 1007.72 1006.01 1005.60 1005.60 1005.41 1005.36 1005.65 1005.21 1005.28 1005.89 1006.09 1005.77 1005.04 1005.16 1005.36 1005.21 1005.45 1005.45 1005.84 1006.21 1006.12 1006.21 1006.24 1006.33 1006.16 1006.28 1006.72 1007.16 1007.41 1007.68 1008.04 1008.16 1008.09 1008.04 1008.09 1008.16 1008.41 1008.80 1009.33 1009.53 1009.80 1010.16 1010.36 1010.09 1009.84 1009.92 1010.04 1010.21 1010.48 1010.80
1007.92 1008.45 1009.68 1010.68 1012.57 1008.57 1006.16 1006.57 1006.92 1006.80 1009.33 1008.48 1007.57 1007.01 1006.01 1005.48 1005.80 1005.84 1005.68 1005.65 1005.36 1005.21 1005.72 1005.36 1005.48 1005.33 1005.16 1005.24 1005.45 1005.33 1005.53 1005.97 1006.36 1006.33 1006.41 1006.72 1006.80 1006.84 1007.12 1007.41 1007.33 1007.48 1007.92 1008.21 1008.24 1008.04 1007.72 1007.89 1008.21 1008.48 1008.89 1009.41 1009.60 1009.68 1010.04 1009.89 1009.57 1009.57 1009.68 1009.89 1010.21 1010.48 1010.68
1009.84 1010.12 1011.41 1011.28 1008.45 1007.45 1006.21 1006.68 1008.45 1007.57 1006.60 1006.80 1006.84 1007.16 1006.97 1005.84 1005.89 1005.89 1005.97 1005.65 1005.48 1005.60 1005.84 1005.77 1005.68 1005.65 1006.04 1006.09 1005.92 1005.72 1005.68 1005.68 1005.92 1006.12 1006.33 1006.41 1006.53 1006.77 1006.53 1006.65 1007.16 1007.41 1007.89 1008.01 1008.09 1007.89 1007.60 1007.68 1008.04 1008.36 1008.77 1009.36 1009.48 1009.68 1009.68 1009.28 1009.28 1009.53 1009.65 1009.77 1009.92 1010.33 1010.60
1008.28 1008.97 1007.89 1008.01 1007.24 1006.80 1006.24 1006.57 1006.97 1006.53 1005.89 1005.68 1005.84 1006.36 1006.60 1006.65 1005.89 1005.24 1005.89 1005.92 1005.41 1005.48 1005.77 1005.84 1005.80 1006.12 1005.92 1005.97 1005.89 1005.97 1005.89 1005.84 1005.97 1006.36 1006.48 1006.57 1006.68 1006.77 1006.89 1006.80 1006.97 1007.28 1007.65 1007.97 1007.97 1008.01 1008.01 1008.24 1008.33 1008.48 1008.65 1009.12 1009.41 1009.60 1009.16 1008.97 1009.28 1009.45 1009.60 1009.72 1010.01 1010.36 1010.57
1007.04 1006.65 1006.80 1006.53 1006.41 1006.68 1006.36 1005.60 1005.80 1006.12 1006.01 1005.53 1005.80 1006.24 1006.60 1005.92 1005.48 1005.16 1005.53 1005.28 1005.24 1005.48 1005.53 1005.89 1005.84 1005.65 1005.72 1005.97 1005.92 1005.77 1005.89 1006.04 1006.21 1006.21 1006.45 1006.60 1006.60 1006.72 1006.92 1007.24 1007.45 1007.41 1007.45 1007.65 1007.92 1008.24 1008.24 1008.24 1008.41 1008.53 1008.65 1008.84 1009.36 1009.16 1008.80 1008.80 1008.92 1009.21 1009.33 1009.65 1010.01 1010.41 1010.36
1008.80 1009.80 1007.41 1007.21 1007.41 1006.80 1006.45 1006.53 1006.04 1005.72 1005.68 1006.04 1006.04 1006.45 1006.48 1006.21 1005.72 1005.45 1005.09 1005.28 1005.36 1005.36 1005.45 1005.60 1005.57 1005.53 1005.48 1005.72 1005.89 1005.92 1006.12 1006.28 1006.45 1006.48 1006.65 1006.80 1006.84 1007.01 1007.21 1007.24 1007.41 1007.65 1007.68 1007.84 1008.01 1008.09 1008.33 1008.16 1008.24 1008.24 1008.48 1008.57 1008.65 1008.60 1008.68 1008.84 1008.89 1008.92 1009.21 1009.57 1009.97 1010.21 1010.33
1008.72 1008.53 1008.01 1007.33 1006.72 1006.53 1006.53 1006.33 1006.77 1007.09 1006.84 1006.53 1006.24 1006.16 1005.97 1005.89 1005.72 1005.65 1005.45 1005.28 1005.45 1005.16 1005.48 1005.21 1005.24 1005.41 1005.16 1005.53 1006.04 1006.04 1006.12 1006.28 1006.41 1006.53 1006.65 1006.89 1007.09 1007.09 1007.12 1007.41 1007.53 1007.65 1007.89 1008.12 1008.21 1008.36 1008.53 1008.41 1008.36 1008.45 1008.33 1008.41 1008.33 1008.33 1008.36 1008.57 1008.57 1008.92 1009.33 1009.65 1009.97 1010.01 1010.09
1007.57 1007.60 1007.57 1007.36 1006.92 1006.57 1006.48 1006.16 1006.60 1007.01 1007.09 1006.89 1006.48 1006.12 1006.01 1005.65 1005.53 1005.41 1005.24 1005.16 1004.89 1004.97 1004.80 1004.80 1004.97 1005.28 1005.33 1005.28 1005.36 1005.41 1005.89 1006.21 1006.36 1006.53 1006.72 1006.97 1007.16 1007.36 1007.68 1007.80 1007.80 1007.97 1008.16 1008.36 1008.53 1008.60 1008.68 1008.65 1008.60 1008.60 1008.65 1008.36 1007.97 1008.41 1008.33 1008.21 1008.68 1009.04 1009.33 1009.60 1009.77 1009.89 1010.04
1009.09 1008.72 1008.84 1008.41 1008.89 1008.33 1007.09 1006.97 1007.04 1007.24 1006.84 1006.80 1006.77 1006.36 1006.04 1005.72 1005.68 1005.53 1005.57 1005.28 1004.68 1004.36 1004.36 1004.68 1004.72 1005.21 1005.45 1005.16 1005.09 1005.09 1005.57 1005.97 1006.24 1006.48 1006.80 1007.01 1007.21 1007.53 1007.60 1007.68 1007.89 1008.16 1008.33 1008.41 1008.57 1008.72 1008.84 1008.72 1008.72 1008.77 1008.84 1008.72 1008.53 1008.16 1008.24 1008.48 1008.72 1009.04 1009.41 1009.60 1009.65 1009.68 1009.60
1008.84 1008.60 1008.09 1008.57 1008.92 1008.72 1008.01 1007.68 1007.41 1007.24 1006.84 1006.97 1007.04 1007.01 1006.65 1006.04 1005.45 1005.24 1005.48 1005.41 1005.24 1005.04 1004.68 1004.33 1004.53 1005.12 1005.48 1005.48 1005.04 1005.12 1005.60 1006.16 1006.28 1006.41 1006.65 1006.92 1007.16 1007.41 1007.41 1007.68 1008.01 1008.21 1008.41 1008.48 1008.57 1008.84 1008.89 1008.80 1008.84 1008.84 1008.84 1008.68 1008.60 1008.33 1008.53 1008.53 1008.68 1009.01 1009.24 1009.45 1009.41 1009.21 1009.41
1008.21 1007.72 1008.24 1008.45 1008.97 1009.48 1008.45 1007.68 1007.53 1007.21 1006.97 1007.12 1006.97 1006.57 1006.36 1006.12 1005.80 1005.45 1005.41 1005.09 1005.12 1005.21 1004.97 1004.84 1004.45 1004.80 1005.24 1005.21 1005.09 1005.33 1005.80 1006.09 1006.45 1006.68 1006.77 1006.89 1007.12 1007.28 1007.36 1007.68 1008.04 1008.28 1008.48 1008.60 1008.77 1008.97 1008.84 1008.84 1008.89 1008.80 1008.77 1008.65 1008.68 1008.41 1008.53 1008.57 1008.65 1008.92 1009.09 1009.28 1009.45 1009.24 1009.33
1008.89 1008.12 1008.16 1008.33 1008.65 1008.48 1007.92 1007.41 1007.12 1006.84 1006.80 1006.97 1007.24 1006.92 1006.48 1006.41 1006.09 1005.57 1005.53 1005.28 1004.72 1004.72 1005.04 1005.21 1004.80 1004.48 1004.89 1005.04 1005.09 1005.65 1006.09 1006.33 1006.48 1006.84 1007.12 1007.24 1007.36 1007.36 1007.45 1007.77 1008.16 1008.41 1008.57 1008.65 1008.77 1008.80 1008.84 1008.92 1008.89 1008.84 1008.80 1008.72 1008.65 1008.45 1008.57 1008.60 1008.68 1008.92 1009.12 1009.16 1009.16 1009.24 1009.48
Wind_Speed
10 12 8 6 4 9 9 7 10 3 5 5 2 4 1 4 5 10 5 7 9 6 10 10 7 6 7 8 9 10 10 10 10 11 13 16 15 15 14 14 14 15 14 13 12 13 12 12 12 11 11 10 10 9 8 8 6 5 5 4 3 2 2
2 2 6 5 3 5 7 10 7 7 4 4 4 7 5 6 7 3 4 8 8 5 3 4 5 7 5 7 9 10 10 10 12 12 12 14 16 16 15 15 15 15 14 14 13 13 14 14 13 12 12 11 9 8 8 8 7 6 5 4 4 3 3
7 5 7 7 3 3 6 7 12 11 8 11 7 6 8 8 7 8 7 6 9 6 3 7 7 5 3 5 7 8 11 13 13 13 14 14 15 15 14 15 14 14 14 14 13 14 15 14 13 12 12 11 9 8 8 7 6 5 5 4 3 2 3
8 8 10 11 10 6 2 2 8 3 7 4 8 7 7 3 10 5 3 5 6 8 4 4 1 1 3 2 6 8 10 12 12 12 13 14 15 16 15 15 15 15 15 15 16 15 15 14 13 12 13 11 11 9 8 7 6 5 5 4 4 3 3
9 10 9 12 11 11 11 9 8 8 6 3 5 1 6 5 7 6 7 5 4 5 5 2 2 2 2 3 5 5 7 9 11 12 12 13 15 15 16 15 15 15 16 16 16 15 14 13 12 12 12 12 10 9 9 8 7 7 6 5 4 4 3
8 10 11 4 5 10 13 12 11 11 9 8 8 7 4 5 5 3 5 7 5 8 3 4 2 3 3 3 4 4 6 8 9 11 13 14 14 15 16 16 16 16 15 16 15 14 13 13 13 14 12 11 10 9 8 8 7 6 6 5 5 4 4
10 4 5 3 3 4 4 11 12 12 10 9 8 8 6 5 5 4 5 7 5 7 5 5 2 2 3 1 3 5 4 5 8 10 12 12 13 15 17 17 15 16 16 15 15 15 15 14 13 13 11 10 9 9 8 7 6 6 5 5 5 4 4
6 6 4 3 1 4 7 9 8 7 12 10 10 9 3 6 4 6 5 8 4 7 4 2 2 1 3 3 4 6 5 5 7 10 12 13 13 13 14 14 13 14 15 15 13 14 13 12 12 12 11 10 9 8 8 7 7 6 5 5 5 5 5
8 5 4 6 4 7 10 10 12 12 9 7 0 5 4 9 6 9 5 8 5 7 2 2 2 4 6 6 6 5 6 5 6 8 10 11 12 13 14 15 15 15 16 16 14 13 12 12 12 11 10 10 9 9 8 8 6 6 5 5 5 5 6
12 12 12 11 10 12 10 13 10 12 13 11 9 8 6 8 4 7 7 8 3 8 3 4 5 4 5 6 6 5 6 6 5 5 9 10 12 12 15 15 16 17 16 14 14 14 12 12 12 11 10 10 10 9 9 7 6 5 5 6 6 5 6
11 11 10 9 11 10 14 16 16 15 16 15 12 8 6 9 4 7 6 11 12 7 4 4 3 4 6 8 8 8 7 6 6 5 7 9 11 11 14 15 13 13 13 16 16 15 13 13 12 11 11 10 9 9 9 8 6 5 5 6 6 6 6
13 4 2 6 13 13 15 15 16 16 15 14 14 10 11 5 5 10 3 5 10 13 12 7 6 6 7 7 7 7 7 7 8 9 9 10 10 11 12 14 15 16 15 15 15 15 14 13 12 11 11 10 10 9 9 8 7 6 5 6 7 7 6
7 3 4 5 9 12 12 14 14 16 16 15 16 15 8 8 10 9 3 4 7 10 12 9 7 8 9 10 9 8 7 6 7 9 10 11 12 12 14 15 15 16 16 15 15 15 14 14 13 12 10 10 9 9 9 8 7 7 6 7 7 7 7
8 5 6 6 11 9 11 13 13 14 15 16 16 14 9 9 8 7 3 5 9 13 13 11 10 8 9 8 7 7 9 9 8 9 11 12 12 14 15 16 16 15 16 16 16 15 15 14 13 12 10 10 10 10 9 9 7 6 6 7 8 7 7
7 6 5 7 10 10 12 11 12 13 13 13 13 10 6 5 7 7 7 8 11 10 7 5 6 6 6 7 10 12 9 8 9 11 12 12 13 14 14 14 16 16 16 16 16 16 15 15 14 11 10 10 10 11 10 9 8 7 8 8 8 8 8
7 6 8 8 8 10 10 10 10 11 12 12 9 8 8 8 7 6 7 9 9 8 4 3 6 8 9 11 12 10 7 7 8 11 11 11 12 13 14 15 15 15 16 17 17 17 16 14 13 12 10 10 10 11 10 8 8 8 9 9 9 8 8
8 9 7 10 9 9 9 11 12 13 12 9 8 7 6 7 6 7 8 9 6 6 6 11 11 11 11 11 9 9 7 6 8 9 10 10 11 12 13 15 16 17 18 18 17 16 14 13 12 12 12 11 11 11 10 8 7 8 9 9 8 8 8
5 10 9 8 9 12 9 1 9 13 11 10 10 9 8 8 7 6 7 8 8 8 9 10 10 11 10 9 8 5 6 6 6 8 9 9 9 11 12 14 15 15 13 13 14 15 15 14 14 13 13 12 11 10 10 9 9 9 9 8 8 8 8
7 6 7 9 13 11 4 3 5 1 6 10 10 7 7 7 9 10 11 10 10 10 10 10 10 9 8 8 9 9 7 7 7 7 7 8 9 10 11 12 13 14 14 13 14 14 14 14 13 12 11 11 10 10 10 10 10 10 9 9 8 8 8
4 7 9 11 9 5 4 5 5 5 3 2 5 7 7 7 8 10 11 10 11 10 10 9 5 5 7 8 9 9 9 9 8 7 6 7 8 9 9 11 12 13 14 15 15 14 12 13 13 13 13 12 12 11 11 11 10 10 9 9 9 8 8
10 9 10 10 6 5 6 4 5 8 6 9 9 8 9 9 9 9 9 10 9 9 8 6 3 3 5 8 6 7 8 7 7 6 5 5 7 8 8 10 12 12 13 13 14 12 12 12 12 13 13 13 12 12 12 12 11 11 10 10 10 9 9
9 10 10 11 11 13 8 5 5 10 3 5 4 3 7 5 8 6 7 9 8 9 7 3 2 2 6 8 4 6 6 5 6 5 4 4 5 7 9 10 11 12 12 12 12 13 14 14 14 13 13 13 13 12 12 12 12 11 11 11 10 9 8
7 10 11 11 13 9 5 9 6 6 2 4 6 5 9 4 7 6 6 8 8 7 6 4 4 5 6 7 4 4 5 5 6 6 5 5 6 8 9 11 12 14 12 13 13 13 12 13 14 13 13 15 13 13 13 13 13 12 12 11 10 9 8
10 10 11 12 8 7 5 9 7 6 5 5 4 10 8 2 3 2 4 7 7 7 5 4 5 6 6 5 5 5 6 5 5 5 6 5 7 7 8 9 11 12 12 11 10 11 12 14 14 15 14 14 15 14 14 13 13 13 12 10 10 9 8
11 11 12 8 8 4 6 6 6 6 6 5 8 10 6 2 3 3 4 7 7 6 6 6 7 7 4 4 4 4 7 7 6 5 6 6 6 7 8 9 10 10 10 11 12 13 12 13 13 13 12 13 14 13 12 12 14 12 10 9 9 8 6
12 11 11 11 7 4 5 5 4 8 6 8 11 3 4 4 3 1 5 8 7 6 8 7 8 3 4 3 4 6 7 7 7 6 7 6 7 6 6 9 9 8 9 9 10 12 10 8 8 8 10 10 10 10 11 13 13 10 9 9 8 7 6
7 7 10 5 8 4 1 9 5 2 9 4 5 4 5 5 5 5 5 7 9 8 8 9 7 3 4 5 6 7 8 8 8 7 8 7 7 7 7 6 7 6 6 8 10 11 10 8 6 7 8 9 9 9 11 13 11 10 9 8 6 5 5
8 8 7 3 4 7 3 2 2 3 3 4 3 7 8 8 7 6 6 6 7 7 8 6 6 4 3 3 5 7 8 8 8 7 7 6 6 5 6 6 7 8 7 6 7 7 8 6 5 6 7 8 9 9 12 9 9 9 8 7 5 4 4
6 4 2 7 2 3 2 2 3 5 7 7 8 8 9 10 10 7 7 8 8 6 6 6 6 6 5 5 6 6 8 8 8 8 7 6 6 5 5 5 6 7 7 7 6 5 3 4 3 4 5 7 9 11 9 7 7 7 6 6 5 5 5
1 1 4 1 1 2 3 2 4 7 8 7 8 8 9 9 11 9 10 9 9 6 6 7 7 7 6 7 6 6 7 7 7 7 7 6 5 5 5 5 4 3 3 3 3 4 3 3 3 4 5 6 9 10 8 8 8 8 7 7 5 5 4
2 2 4 1 3 3 2 4 5 5 7 8 8 8 9 10 10 10 9 8 7 7 7 9 9 8 8 8 6 6 6 6 6 7 6 6 5 5 4 4 4 2 2 3 4 5 5 4 4 5 7 7 8 8 8 7 7 8 7 6 5 5 4
6 2 3 3 5 2 3 4 6 8 11 12 11 9 9 10 10 9 9 6 7 6 8 9 10 9 9 8 7 7 7 7 7 6 6 6 5 4 4 4 2 2 2 3 2 2 1 1 0 2 3 5 6 6 7 9 7 7 6 6 5 4 4
2 2 2 6 5 2 7 4 8 10 11 13 14 13 11 10 10 9 7 7 6 7 7 9 9 9 8 9 9 10 8 8 7 7 6 6 6 6 6 5 4 3 3 3 4 3 3 3 2 1 0 2 1 4 3 4 6 6 5 5 4 4 4
7 3 3 7 4 4 1 8 11 14 14 14 14 12 11 10 9 7 7 6 6 7 7 8 9 10 8 8 9 9 9 8 8 7 7 7 7 7 6 6 6 6 6 5 5 4 3 2 2 1 1 2 3 5 4 4 4 4 5 4 4 5 5
4 6 3 5 4 7 7 9 12 13 12 11 13 13 12 12 10 7 8 7 6 6 7 8 8 8 8 8 7 8 8 7 7 6 7 6 6 6 6 6 6 7 6 5 5 5 3 2 2 2 2 2 2 2 3 3 3 4 4 4 4 5 5
5 4 5 4 5 7 11 14 12 11 8 9 12 12 11 11 11 10 9 9 7 7 6 5 6 9 9 9 9 7 8 8 8 7 7 7 7 6 5 6 6 6 6 5 5 4 3 2 2 1 1 2 2 2 3 3 3 4 4 4 4 5 5
5 8 8 7 7 8 10 11 11 8 4 10 12 13 13 12 12 11 10 10 8 9 9 9 6 8 10 10 8 8 8 8 8 8 8 7 6 5 5 6 6 6 5 4 4 3 3 2 2 1 0 1 0 1 1 2 2 3 3 3 4 5 3
Wind_Direction
195 196 172 186 217 219 155 202 213 231 9 256 235 201 14 279 283 265 161 228 229 250 248 225 199 231 228 207 207 212 216 215 210 209 203 198 187 184 183 183 181 179 177 179 178 174 176 178 179 181 175 176 184 183 179 174 171 175 182 189 185 189 214
122 48 191 157 186 324 149 215 191 98 42 342 240 267 140 241 256 271 185 246 249 218 270 127 170 235 228 210 217 217 211 209 208 208 205 196 189 181 180 183 180 179 177 178 180 179 180 182 182 179 177 177 186 187 181 174 175 184 189 187 192 197 216
134 171 168 165 153 283 255 297 130 207 167 215 184 252 240 259 241 266 193 230 262 255 203 168 173 235 228 220 202 210 207 209 210 203 199 194 187 177 178 182 179 180 178 179 183 182 182 182 182 179 178 179 186 186 182 180 180 190 192 193 187 209 235
151 179 196 206 186 172 235 250 191 233 254 247 180 207 293 300 288 293 232 183 261 183 258 86 326 125 279 239 190 218 216 211 209 203 194 190 187 180 179 181 181 180 180 181 183 183 183 179 181 181 182 186 190 183 176 178 180 187 194 198 198 233 228
160 200 187 221 192 190 190 211 207 189 222 21 305 135 255 273 291 284 303 253 239 125 111 173 175 252 221 222 219 213 221 214 206 200 194 188 189 184 181 183 181 180 181 182 184 185 182 178 180 186 188 190 194 182 180 184 185 198 204 206 212 228 240
198 212 190 266 303 204 198 204 212 201 188 193 223 218 167 231 242 260 247 260 290 117 167 154 222 197 197 199 241 231 218 213 201 196 194 188 190 189 185 186 182 181 179 180 183 185 181 178 185 192 189 186 191 189 189 194 203 205 212 201 215 230 234
205 119 73 14 313 313 287 224 221 205 213 223 228 264 166 208 225 285 277 297 282 101 135 171 177 171 203 248 259 250 231 211 197 195 195 190 191 190 187 186 184 179 178 179 181 182 180 181 185 188 187 187 187 191 200 201 211 219 229 215 208 221 233
82 113 101 123 48 274 231 217 261 236 225 219 239 252 129 236 137 234 224 251 277 119 103 133 132 209 259 248 256 264 255 214 199 192 192 187 186 193 191 186 181 177 174 172 171 174 174 177 182 185 183 185 184 196 203 209 215 216 226 229 223 215 227
195 181 184 183 166 214 230 229 214 231 248 240 170 84 131 254 207 253 267 269 281 115 118 163 162 212 224 221 227 234 253 242 213 194 193 187 185 182 185 181 178 175 172 171 171 171 173 174 178 183 182 181 183 194 207 223 226 207 215 226 230 237 237
200 203 204 201 192 209 217 234 216 205 216 199 211 217 186 241 190 216 245 260 283 122 168 164 183 205 228 244 257 239 227 241 244 200 192 190 185 184 182 179 177 179 176 171 165 169 174 177 179 183 182 180 185 194 208 224 223 219 218 226 232 237 245
220 221 219 204 219 196 213 203 209 202 212 217 218 246 228 238 148 217 215 246 282 261 196 187 195 229 256 264 245 237 234 222 216 218 206 195 191 186 183 182 181 177 176 174 168 169 174 177 180 181 182 182 186 194 206 214 220 217 215 225 230 242 245
246 272 165 176 217 229 211 216 212 210 205 206 216 214 241 151 156 249 182 177 249 264 278 300 281 286 286 275 281 272 241 225 217 204 199 201 198 191 183 182 183 185 181 174 170 171 174 176 178 182 181 182 187 195 205 212 212 212 213 218 225 231 239
218 234 228 191 220 234 235 228 210 201 197 199 214 216 207 175 243 264 95 192 229 264 282 298 282 291 288 284 287 291 290 261 223 209 206 200 197 192 191 190 188 185 182 177 173 172 173 172 177 178 178 180 188 197 209 211 214 211 214 216 222 231 233
210 195 215 205 230 220 229 228 211 201 196 200 212 218 214 224 235 266 199 181 250 276 290 293 294 295 289 290 291 279 260 252 237 218 212 207 201 197 195 193 191 188 182 174 173 169 171 172 175 177 174 179 188 198 205 207 210 211 212 215 224 229 234
195 179 179 203 221 211 219 209 202 199 199 205 210 224 189 212 244 252 261 267 274 280 289 262 279 283 282 271 268 270 274 262 242 232 224 215 208 204 198 193 191 188 184 176 171 170 171 172 173 171 178 184 194 208 209 209 204 209 212 216 221 226 230
187 175 190 181 201 210 202 187 189 187 189 198 183 210 182 213 224 230 248 259 268 271 257 276 282 274 256 258 259 265 271 262 251 240 235 224 216 207 199 194 190 187 185 179 174 171 169 167 171 175 178 187 195 207 207 210 210 207 212 217 221 223 230
210 157 192 180 188 201 207 198 193 191 195 212 202 204 181 218 243 243 249 263 285 337 322 291 289 286 281 274 269 268 268 266 259 250 239 232 219 209 197 192 191 191 187 181 175 168 161 164 177 179 181 189 199 201 203 203 207 215 212 216 218 225 231
172 160 182 186 207 224 225 204 211 199 211 202 206 207 202 203 205 250 274 288 305 289 282 278 280 284 295 300 293 278 270 265 244 244 240 234 222 210 203 198 194 191 188 178 168 162 164 174 178 185 191 196 199 198 201 200 209 214 215 217 221 225 231
207 153 168 215 229 239 73 104 64 125 219 209 225 225 208 202 207 239 255 258 263 271 277 279 281 288 297 290 277 266 243 232 240 238 233 224 217 211 204 201 196 188 182 166 159 163 168 175 180 183 190 198 194 197 201 204 208 210 212 218 219 226 233
151 193 213 233 240 77 130 98 102 86 107 110 210 226 200 223 237 234 245 259 269 274 274 275 282 291 292 286 265 244 237 227 228 230 223 210 207 207 204 196 192 179 171 164 162 159 166 173 182 187 193 196 201 202 201 207 207 209 211 216 221 226 232
231 227 227 236 88 164 139 147 188 177 179 177 203 241 229 209 229 244 254 259 265 270 271 271 265 279 283 274 254 195 204 206 219 222 214 197 196 198 194 190 183 173 165 162 159 158 168 179 185 193 197 197 201 203 203 208 209 210 214 216 220 223 231
235 235 235 237 235 249 211 191 185 201 193 199 177 247 261 200 250 263 260 255 257 260 258 228 213 225 264 268 210 139 156 169 188 198 199 181 178 183 180 176 171 165 164 164 160 173 181 185 191 196 196 197 198 203 208 208 209 210 215 217 216 224 230
218 231 240 237 251 245 264 186 145 169 142 152 110 238 265 228 239 237 258 255 247 254 260 185 188 236 257 253 101 129 131 158 162 168 171 169 163 170 172 174 168 165 165 170 178 187 185 188 194 197 196 197 199 204 207 211 211 212 215 215 216 220 227
220 237 238 247 236 267 132 105 116 117 149 121 197 258 265 136 197 304 249 249 249 249 235 197 214 240 245 274 78 103 131 142 141 149 155 157 148 163 162 167 163 162 164 175 187 185 190 199 200 199 196 198 204 209 209 211 214 216 216 213 216 221 230
220 220 250 252 244 130 100 94 116 122 141 192 246 254 282 43 323 311 260 253 256 249 214 205 242 221 282 60 109 128 124 129 129 134 143 147 150 152 161 157 163 165 177 188 190 194 199 206 206 203 199 200 206 208 212 215 220 220 214 215 220 223 226
230 230 240 242 256 68 75 100 125 144 184 231 254 19 22 6 355 11 270 283 279 261 228 220 245 255 129 118 132 144 144 137 132 138 136 141 150 151 154 151 166 173 187 196 209 211 213 216 214 202 199 199 202 203 210 221 221 218 215 218 220 216 221
249 237 246 242 245 118 204 122 131 133 253 304 28 350 353 18 352 339 317 287 291 271 243 230 237 243 173 159 154 147 134 138 144 148 141 140 147 147 147 155 177 183 188 205 215 222 217 208 193 196 195 201 205 204 216 223 226 222 217 213 205 207 217
246 229 233 253 37 93 89 282 276 138 312 28 339 340 311 327 324 320 307 298 291 282 274 258 215 206 161 151 149 145 137 138 137 139 139 138 137 149 181 178 181 197 208 218 226 232 235 214 190 189 196 204 210 214 223 222 221 211 199 184 178 185 210
246 283 324 91 132 2 341 307 316 311 320 314 319 304 298 297 294 299 289 294 286 255 251 241 211 187 195 175 171 153 139 136 141 141 147 147 149 149 163 160 162 188 207 214 225 218 186 164 172 191 204 219 217 225 225 216 205 198 180 165 161 192 215
21 191 32 319 68 35 10 19 18 346 345 346 331 318 304 292 289 285 278 279 284 252 221 225 199 196 174 157 151 134 129 126 121 126 132 135 136 134 137 134 140 177 184 212 215 222 207 204 204 209 222 227 235 236 230 212 191 182 172 161 174 204 212
269 189 112 19 18 2 37 52 39 8 2 348 340 315 295 293 294 291 285 279 271 247 215 212 194 175 167 157 135 127 131 135 139 143 142 140 148 149 150 118 128 155 215 235 243 252 253 231 232 231 226 228 235 236 231 213 190 165 158 167 179 186 195
236 60 103 1 332 319 105 60 31 15 360 343 335 321 298 285 287 286 288 271 240 212 201 195 185 168 166 154 145 149 148 142 143 139 137 132 125 109 101 117 138 168 194 237 252 269 305 20 267 287 270 245 227 229 208 219 188 153 160 164 190 195 165
244 296 199 357 314 238 162 82 33 11 353 339 330 328 316 297 284 277 262 245 232 205 192 183 183 171 162 164 165 164 146 144 145 142 135 129 124 127 134 130 141 120 107 89 73 63 72 57 28 1 283 280 234 165 183 140 141 174 172 154 162 166 172
233 269 34 9 264 217 163 351 1 350 343 340 333 326 320 312 298 284 259 232 223 202 184 181 186 170 163 168 181 170 153 149 135 126 122 120 117 113 109 113 108 101 87 78 74 73 77 56 69 98 122 189 228 223 185 166 173 179 157 165 195 205 209
248 37 39 61 333 296 304 331 337 332 337 343 344 340 326 316 306 285 262 225 186 191 181 192 186 165 158 170 180 168 147 120 108 104 110 113 110 104 109 105 93 85 85 83 86 87 81 88 113 130 154 156 176 166 134 176 185 174 173 191 220 247 242
308 1 33 5 342 313 313 315 318 320 336 337 339 341 336 319 309 298 276 256 202 180 173 186 199 174 168 168 179 156 118 120 112 107 100 98 98 102 100 96 97 95 92 92 93 91 95 113 112 159 170 158 162 190 161 182 184 184 196 207 234 261 266
317 344 322 329 312 302 295 296 303 303 333 349 338 331 331 324 311 304 281 267 242 189 176 179 176 179 169 167 164 140 131 119 114 108 103 94 89 99 110 111 111 109 108 108 113 117 119 107 103 92 74 72 11 293 161 194 207 189 195 233 266 270 265